Temp
13 13 13 13 13 13 13 13 13 13 12 12 12 12 12 11 11 11 11 11 10 10 11 11 11 11 11 11 10 10 9 9 9 8 8 8 8 7 7 7 7 7 6 6 6 6 5 5 4 4 4 3 3 3 3 3 3 2 2 2 2 2 1 1 1 1 1 1 1
14 13 13 13 13 13 13 13 13 13 13 13 13 12 12 11 11 11 11 11 11 11 11 11 11 11 11 11 10 10 9 9 9 8 8 8 8 7 7 7 7 7 6 6 6 5 5 5 4 4 3 3 3 3 3 3 2 2 2 2 2 1 1 1 1 1 1 1 1
14 13 13 13 13 13 13 13 13 13 13 13 13 12 12 12 11 11 11 11 11 11 11 11 11 11 11 11 10 10 10 9 9 9 8 8 8 8 7 7 7 7 6 6 6 5 5 5 4 4 3 3 3 3 3 3 2 2 2 2 2 1 1 1 1 1 1 1 1
14 14 13 13 13 13 13 13 13 13 14 13 13 13 12 12 12 12 12 12 11 11 11 11 11 11 11 10 10 10 10 9 9 9 8 8 8 8 7 7 7 7 6 6 6 5 5 5 4 4 3 3 3 3 3 3 2 2 2 2 2 1 1 1 1 1 1 1 1
14 14 14 13 13 13 13 13 13 13 13 13 13 13 13 13 13 12 12 12 12 12 12 11 11 11 11 10 10 10 10 9 9 9 8 8 8 8 8 7 7 7 6 6 6 5 5 5 4 4 3 3 3 3 3 3 3 2 2 2 2 1 1 1 1 1 1 1 1
14 14 14 14 13 13 13 13 13 13 13 13 13 13 14 13 13 13 12 12 12 12 12 11 11 11 10 10 10 10 10 10 9 9 9 8 8 8 8 7 7 7 6 6 6 5 5 4 4 4 3 3 3 3 3 3 2 2 2 2 2 1 1 1 1 1 1 1 1
14 14 14 14 13 13 13 13 13 13 13 13 13 13 14 14 13 13 13 13 12 12 12 12 11 11 11 10 10 10 10 10 9 9 9 8 8 8 8 7 7 7 6 6 5 5 5 4 4 3 3 3 3 3 3 3 2 2 2 2 2 1 1 1 1 1 1 1 1
14 14 14 14 14 13 13 13 13 13 13 13 13 13 13 13 13 13 13 13 13 13 12 12 12 11 11 11 10 10 10 10 9 9 9 9 8 8 8 8 7 7 6 6 5 5 5 4 4 4 3 3 3 3 3 3 2 2 2 2 2 2 1 1 1 1 1 1 1
13 13 13 13 13 13 13 13 13 13 13 13 13 13 13 13 13 13 13 13 13 13 13 12 12 12 11 11 11 10 10 10 10 9 9 9 9 9 8 8 7 7 7 6 6 5 5 4 4 4 3 3 3 3 3 3 2 2 2 2 2 2 1 1 1 1 1 1 0
12 12 12 12 12 12 13 13 12 12 13 13 13 13 13 13 13 13 13 13 13 13 13 13 12 12 12 11 11 11 10 10 10 9 9 9 9 9 9 8 8 8 7 7 6 5 5 4 4 4 4 3 3 3 3 3 2 2 2 2 2 2 1 1 1 1 1 0 0
11 11 11 11 11 11 11 12 12 12 12 13 13 13 13 13 13 13 13 13 12 12 13 13 12 12 12 11 11 11 10 10 10 9 9 9 9 9 9 9 8 8 8 7 7 6 5 4 4 4 4 4 3 3 3 3 2 2 2 2 2 2 1 1 1 1 1 0 0
11 11 11 11 11 11 11 11 11 11 12 12 13 13 13 13 13 13 13 12 12 12 12 12 12 12 12 12 11 11 11 10 10 10 9 9 9 9 9 9 9 9 8 8 7 6 6 5 5 5 4 4 4 3 3 3 2 2 2 2 2 2 1 1 1 1 1 1 0
12 12 12 11 11 11 11 11 11 11 11 12 12 12 13 13 13 13 12 12 12 12 12 12 12 12 12 11 11 11 11 10 10 10 9 9 9 9 9 9 9 9 9 8 8 7 6 6 5 5 5 5 4 4 3 3 3 2 2 2 2 1 1 1 1 1 1 1 0
12 12 12 12 11 11 11 11 11 11 11 11 11 12 12 12 12 12 12 12 12 12 12 12 12 11 11 11 11 11 10 10 10 10 9 9 9 9 9 9 9 9 9 9 8 8 7 7 6 6 5 5 5 4 4 3 3 2 2 2 2 1 1 1 1 1 1 1 0
11 12 12 11 11 11 11 11 11 11 11 11 11 11 11 12 12 12 12 12 12 12 12 11 11 11 11 11 11 10 10 10 10 9 9 9 9 9 9 9 9 9 9 9 8 8 8 7 7 6 6 5 5 5 4 4 3 3 2 2 2 2 2 2 1 1 1 0 0
11 11 11 11 11 11 11 10 10 10 10 10 11 11 11 11 11 11 12 12 12 12 11 11 11 11 11 11 10 10 10 10 10 9 9 9 9 9 9 9 9 9 9 9 9 8 8 8 7 7 6 6 5 5 4 4 3 3 3 2 2 2 2 2 1 1 1 0 0
11 11 11 11 10 10 10 10 10 10 10 10 10 10 10 10 10 10 11 11 11 11 11 11 11 11 11 10 10 10 10 10 10 10 10 10 9 9 9 9 9 9 9 9 9 8 8 8 7 7 6 6 5 5 5 4 4 3 3 3 2 2 2 2 1 1 1 0 0
10 10 10 10 10 10 10 10 10 10 10 10 10 10 10 10 10 10 10 10 10 10 10 10 10 10 10 10 10 10 10 10 10 10 10 10 10 10 9 9 9 9 9 9 9 8 8 8 8 7 6 6 5 5 4 4 4 3 3 3 2 2 2 2 1 1 1 0 0
10 10 10 10 10 10 10 10 10 10 10 10 10 10 10 10 10 9 9 9 9 9 9 9 9 10 10 10 10 10 9 9 9 9 9 9 9 9 9 9 9 9 8 8 8 8 8 8 7 7 6 5 5 5 4 4 3 3 3 3 2 2 2 2 1 1 1 0 0
10 10 10 10 9 9 9 9 9 9 10 10 10 10 10 10 9 9 9 9 9 9 8 9 9 9 9 9 9 9 9 8 8 8 8 8 8 8 8 8 8 8 7 7 7 7 7 7 7 6 6 5 5 4 4 4 3 3 3 2 2 2 2 1 1 1 1 0 0
10 10 10 9 9 9 9 9 9 9 9 9 9 9 9 9 9 9 9 9 8 8 8 8 8 9 9 9 9 8 8 8 8 7 7 7 7 7 7 7 7 7 6 6 6 5 5 5 6 5 5 5 4 4 4 3 3 3 3 2 2 2 2 1 1 1 0 0 0
10 10 10 9 9 9 9 9 9 9 9 9 9 9 9 9 9 9 8 8 8 8 7 8 8 8 8 8 8 8 8 7 7 7 7 7 7 7 7 7 6 6 6 5 5 5 4 4 4 5 4 4 4 4 3 3 3 3 2 2 2 2 1 1 1 0 0 0 -0
10 9 9 9 9 9 9 9 9 9 9 9 9 8 8 8 8 8 8 8 7 7 7 7 7 6 6 6 6 6 6 6 6 6 6 6 6 6 6 6 6 6 6 6 6 5 5 4 4 4 4 4 4 3 3 3 3 2 2 2 2 2 1 1 1 0 0 0 -0
9 9 9 9 9 9 9 9 9 8 8 8 8 8 8 8 8 7 7 7 7 7 7 6 6 6 5 5 5 5 5 5 5 6 6 6 5 5 5 5 5 6 6 7 7 6 6 5 4 4 4 4 4 3 3 3 3 2 2 2 2 1 1 1 1 1 0 0 -0
9 8 8 8 8 8 8 8 8 8 8 7 7 7 7 7 7 7 7 7 6 6 6 6 5 5 5 5 5 5 4 4 4 5 5 5 5 4 4 4 4 5 5 6 7 7 6 5 4 4 4 3 3 3 3 3 3 2 2 2 1 1 1 1 0 0 0 0 -0
8 8 8 8 8 8 8 7 7 7 7 7 7 7 6 6 6 6 6 6 6 6 5 5 5 5 5 4 4 4 4 4 4 4 4 4 4 4 3 3 3 3 4 4 5 5 5 4 3 3 3 3 3 2 2 2 2 2 2 1 1 1 0 0 0 0 0 -0 -0
8 7 7 7 7 7 7 7 7 6 6 6 6 6 6 6 5 5 5 5 5 5 5 5 5 4 4 4 4 4 4 4 4 4 3 3 3 3 3 3 3 3 3 3 3 3 3 3 3 3 3 3 3 2 2 2 2 2 2 1 1 0 0 -0 -0 -0 -0 -0 -0
7 7 7 7 7 7 7 6 6 6 6 5 5 5 5 5 5 5 5 5 4 4 4 4 4 4 4 4 4 4 4 4 4 3 3 3 3 2 2 2 2 2 2 2 2 2 2 3 3 3 3 3 3 3 3 3 2 2 2 1 1 1 0 0 -0 -0 -0 -0 -1
7 6 6 6 6 6 6 6 5 5 5 5 5 5 4 4 4 4 4 4 4 4 4 4 4 4 4 4 4 4 4 3 3 3 3 3 2 2 2 2 2 2 2 2 2 2 2 2 3 3 3 3 3 3 3 3 3 2 2 2 2 1 1 0 0 -0 -0 -0 -0
6 6 6 5 5 5 5 5 5 5 4 4 4 4 4 4 4 4 4 4 4 4 4 3 3 3 3 3 3 3 3 3 3 3 3 3 2 2 2 2 2 2 2 2 2 2 2 2 3 3 3 4 4 4 3 3 3 3 3 2 2 2 2 1 1 0 0 -0 -0
5 5 5 5 5 5 5 5 4 4 4 4 4 4 4 4 4 4 4 3 3 3 3 3 3 3 3 3 3 3 3 3 3 3 3 2 2 2 2 2 2 2 2 2 2 2 2 2 3 3 4 4 4 4 3 3 3 3 3 3 3 3 2 2 2 1 1 0 -0
5 5 5 4 4 4 4 4 4 4 4 4 4 3 3 3 3 3 3 3 3 3 3 3 3 3 3 3 3 3 3 3 3 3 3 3 3 3 3 3 2 2 2 2 2 2 2 3 3 3 3 4 4 4 3 3 3 3 3 3 3 3 3 2 2 2 1 1 0
4 4 4 4 4 4 4 4 4 4 3 3 3 3 3 3 3 3 3 3 3 3 3 3 3 3 3 3 3 3 3 3 3 3 3 3 3 3 3 3 2 2 3 2 3 3 3 3 3 3 4 4 4 4 4 3 3 3 3 3 3 3 3 2 2 2 2 2 1
4 4 4 4 4 3 3 3 3 3 3 3 3 3 3 3 3 3 3 3 3 3 3 3 3 3 3 3 3 3 3 3 3 3 3 3 3 3 3 2 2 3 3 3 3 3 3 3 3 4 4 4 4 4 4 4 4 3 3 3 3 3 3 3 2 2 2 2 1
4 3 3 3 3 3 3 3 3 3 3 3 3 3 3 3 3 3 3 3 3 3 3 3 3 3 3 3 3 3 3 3 3 3 3 3 3 2 2 2 3 3 3 3 3 3 3 3 3 4 4 4 4 4 4 3 3 3 3 3 3 3 3 2 2 2 2 2 2
3 3 3 3 3 3 3 3 3 2 2 2 2 2 2 2 2 2 2 2 2 2 2 3 3 3 2 2 2 2 2 2 2 2 3 3 2 2 2 2 3 3 3 3 3 3 3 3 3 3 4 4 3 3 3 3 3 3 2 2 2 2 2 2 2 2 2 2 2
3 3 3 2 2 2 2 2 2 2 2 2 2 2 2 2 2 2 2 2 2 2 2 2 2 2 2 2 2 2 2 2 2 2 2 2 2 2 2 2 3 3 3 3 3 3 3 3 3 3 3 3 3 3 3 3 2 2 2 2 2 2 2 2 2 2 2 1 1
2 2 2 2 2 2 2 2 2 2 2 2 2 2 2 2 2 2 2 2 2 2 2 2 2 2 2 2 2 2 2 2 2 2 2 2 2 2 2 2 2 3 3 3 2 2 3 3 3 3 3 3 3 3 3 2 2 2 2 2 2 2 2 2 1 1 1 1 1
2 2 2 2 2 2 2 2 2 2 2 2 2 2 2 2 2 2 2 2 2 2 2 2 2 2 2 2 2 2 2 2 2 2 2 2 2 2 2 2 2 2 2 2 2 2 2 2 3 3 3 3 3 3 2 2 2 2 2 2 2 1 1 1 1 1 1 1 1
2 2 2 2 2 2 2 1 1 1 1 1 1 1 1 1 1 2 2 2 2 2 1 1 1 1 1 1 1 1 1 1 1 1 1 1 1 2 2 2 2 2 2 2 2 2 2 2 2 2 3 2 2 2 2 2 2 2 2 2 2 1 1 1 1 1 1 1 1
2 2 2 1 1 1 1 1 1 1 1 1 1 1 1 1 1 1 1 1 1 1 1 1 1 1 1 1 1 1 1 1 1 1 1 1 1 1 1 1 1 1 1 2 2 2 2 2 2 2 2 2 2 2 2 2 1 1 1 1 1 1 1 1 1 1 1 1 1
Height
807 806 806 805 804 803 802 801 800 800 799 798 797 797 796 795 795 794 793 793 792 791 790 790 789 788 788 788 788 788 787 787 787 786 786 786 785 785 785 785 785 785 785 784 785 785 785 786 786 786 786 786 786 786 785 785 786 786 786 786 786 786 786 787 787 786 787 787 787
806 805 804 803 803 802 801 800 799 798 797 796 795 795 794 794 793 792 791 791 790 789 789 788 788 787 787 786 786 786 786 785 785 785 784 784 783 783 783 783 783 783 783 783 783 783 783 783 784 784 784 784 784 783 783 783 783 783 783 783 783 784 784 784 783 783 784 784 785
805 804 803 803 801 800 799 798 797 797 796 795 794 793 793 792 791 790 790 789 788 788 787 787 786 786 785 785 785 784 784 783 783 783 783 782 782 782 782 781 781 781 781 781 781 781 781 782 782 782 782 782 782 781 781 780 781 781 781 781 781 782 782 782 781 781 782 782 782
804 803 803 801 800 799 798 797 796 795 794 793 793 792 791 790 789 789 788 788 787 786 786 785 784 784 784 783 783 783 782 782 782 781 781 780 780 780 780 780 779 779 779 779 779 779 779 780 780 780 780 779 779 779 778 778 779 779 779 779 779 779 779 779 779 779 779 779 779
803 802 801 800 799 798 797 796 795 794 793 792 791 790 789 788 788 787 786 786 785 784 784 783 783 783 782 782 781 781 780 780 780 780 779 779 778 778 778 778 778 778 777 777 777 777 778 779 779 779 778 777 777 776 775 776 777 777 776 776 777 777 776 776 776 776 776 776 776
802 801 800 799 798 797 796 795 794 793 792 791 790 788 788 787 786 785 785 784 783 783 783 782 781 781 780 780 780 779 779 779 778 778 777 777 777 776 776 776 776 776 775 775 775 776 776 776 777 776 776 775 774 773 773 774 774 774 774 774 774 774 774 773 773 774 774 774 774
801 800 799 798 797 795 794 793 793 791 790 789 788 787 786 785 785 784 783 782 782 781 781 780 780 779 779 778 778 777 777 777 776 776 776 775 775 774 774 774 774 774 774 773 774 774 774 774 774 774 773 773 772 771 771 771 772 772 772 771 771 771 771 770 770 771 771 770 770
799 798 797 796 795 794 793 792 791 790 789 788 787 786 785 784 783 782 782 781 780 780 779 779 778 778 777 777 776 775 775 775 774 774 774 773 773 772 772 772 772 771 771 771 771 772 772 772 772 771 770 770 769 769 768 769 769 769 769 768 768 768 768 768 768 768 768 767 767
798 797 796 795 793 793 792 790 789 788 787 786 785 784 783 783 782 781 780 779 779 778 778 777 776 776 775 775 774 774 773 773 773 772 772 771 771 770 770 769 769 769 769 769 769 769 769 769 769 768 768 767 766 766 766 766 766 766 765 765 765 765 765 765 765 765 764 764 764
796 795 794 793 792 791 790 789 788 787 786 785 784 783 782 781 780 779 779 778 777 776 776 775 774 774 774 773 773 772 772 771 771 770 770 769 769 768 768 767 767 767 766 766 767 767 767 767 766 765 765 764 764 763 763 764 764 764 763 763 762 762 762 762 762 762 762 761 761
794 793 792 791 790 790 789 788 787 786 784 783 782 781 781 779 779 778 777 776 775 775 774 774 773 772 772 771 771 770 770 769 769 769 768 767 767 766 766 765 765 764 764 764 764 764 764 764 763 762 762 761 761 761 761 761 761 761 760 759 759 759 759 759 759 759 759 759 758
792 791 790 789 788 788 787 786 785 784 783 782 781 780 779 778 777 776 775 774 774 773 772 772 771 771 770 769 769 769 768 768 767 767 766 765 765 764 764 764 763 763 762 762 762 762 761 761 760 759 759 759 759 758 758 758 758 758 757 757 757 756 756 755 755 756 756 756 756
791 789 788 787 786 785 784 783 783 782 782 781 780 779 778 777 776 775 774 773 772 771 771 770 770 769 768 768 767 767 766 766 765 765 764 764 763 763 762 762 761 760 760 759 759 759 758 758 757 756 756 755 755 755 755 755 755 755 754 754 754 753 753 752 752 752 753 753 753
789 788 787 786 785 784 783 782 781 780 779 779 778 777 777 776 775 774 773 772 770 770 769 769 768 767 767 766 765 765 764 764 764 763 762 762 761 761 760 759 759 758 758 757 757 756 755 754 754 753 753 752 752 752 752 752 752 751 751 750 750 749 749 749 749 749 750 750 749
788 787 786 784 783 782 781 780 779 778 777 776 775 775 775 774 774 773 771 770 769 768 768 767 766 765 765 764 764 763 763 762 762 761 760 759 759 759 758 757 756 756 755 754 754 753 752 751 751 750 749 749 749 748 748 748 748 748 747 747 746 746 745 745 745 746 746 746 746
786 785 784 783 782 781 779 778 777 776 775 774 773 773 772 772 771 771 770 769 768 767 766 765 764 764 763 763 762 761 761 760 759 759 758 757 757 756 756 755 754 754 753 752 751 750 749 749 748 747 746 746 745 745 745 745 744 744 744 744 743 743 742 742 742 743 743 743 742
785 783 783 781 780 779 778 777 775 774 773 772 771 770 769 769 769 768 768 767 766 765 764 764 763 762 761 760 760 759 759 758 757 757 756 755 754 754 753 752 752 751 750 749 749 748 747 746 745 744 743 743 742 741 741 741 741 741 740 740 740 739 739 739 739 739 739 739 739
783 782 781 780 779 778 776 775 774 773 771 770 769 768 767 767 766 765 765 764 764 763 762 762 761 760 759 759 758 757 757 755 754 754 753 753 752 751 750 750 749 748 748 747 746 745 744 743 742 741 741 740 739 738 738 738 737 737 737 737 736 736 736 736 736 736 736 736 735
782 781 780 779 777 776 775 774 772 771 770 769 768 766 765 764 764 763 762 761 761 761 760 759 758 758 757 756 755 755 754 753 752 751 750 750 749 748 748 747 746 745 745 744 743 742 741 740 739 739 738 737 736 735 735 734 734 734 733 733 733 733 732 732 732 732 732 732 731
781 780 779 778 776 775 774 772 771 770 769 767 766 764 763 762 762 761 759 759 758 758 757 756 755 754 754 753 753 752 751 751 750 749 748 747 746 745 744 744 743 743 742 741 740 739 738 738 737 736 735 735 734 733 732 732 731 730 730 730 729 729 729 729 729 729 729 729 728
780 779 778 777 775 774 773 771 770 769 767 766 764 763 762 760 759 758 757 756 756 755 754 753 752 751 751 750 749 749 748 748 747 746 744 744 743 742 741 741 740 739 739 738 737 736 735 735 734 734 733 733 732 731 730 729 729 728 727 726 726 725 725 725 725 725 725 725 725
779 778 777 776 774 773 772 770 769 767 766 764 763 761 760 759 758 756 755 754 753 752 751 750 749 749 748 747 746 745 744 744 743 742 741 740 739 738 738 737 736 736 735 734 734 733 733 732 732 732 731 730 729 729 728 727 726 725 724 723 722 722 721 721 721 721 721 721 721
779 777 776 774 773 772 770 769 767 766 764 763 761 760 759 757 756 754 754 752 751 750 749 748 747 746 745 744 743 742 741 740 739 738 738 737 736 734 734 733 732 731 730 730 729 729 729 728 728 728 728 727 727 726 725 724 724 722 721 720 719 718 718 717 718 718 718 718 718
777 776 774 773 772 770 769 767 766 764 763 761 760 758 757 755 754 753 752 750 749 748 747 746 745 744 743 742 741 739 738 737 735 734 734 733 732 731 730 729 728 726 725 725 724 724 724 723 723 723 723 723 722 721 721 720 720 719 718 717 716 715 714 714 714 714 714 714 714
776 774 773 772 770 769 767 766 764 763 761 759 758 757 755 754 752 751 750 748 747 746 745 744 743 742 741 739 738 737 736 735 733 732 730 729 729 728 728 727 725 723 721 720 719 719 719 719 718 718 717 717 717 717 716 716 716 715 714 714 713 712 711 710 710 710 710 710 710
774 772 771 770 768 767 765 764 763 761 759 758 757 755 754 752 751 749 748 747 745 744 743 742 741 740 739 737 736 734 734 732 731 730 729 727 726 725 725 724 722 721 719 718 717 716 716 715 715 714 714 714 713 713 712 712 712 711 711 710 709 709 708 707 707 707 707 707 706
772 770 769 768 766 765 764 762 761 759 758 756 755 754 752 750 749 748 746 745 744 742 741 740 739 738 737 735 734 732 731 730 729 728 727 725 724 723 722 720 719 718 716 715 715 714 714 714 714 713 712 711 710 710 709 709 708 708 708 707 706 705 704 704 703 703 703 703 703
770 769 767 766 764 763 761 760 759 757 756 754 753 752 750 749 747 746 744 743 742 740 739 738 737 736 734 733 732 730 729 728 727 726 725 723 722 721 719 718 716 715 714 713 713 713 713 713 712 712 711 710 709 708 707 706 706 705 704 704 703 701 700 700 699 699 699 699 699
769 767 766 764 763 761 759 758 757 756 754 753 751 750 748 747 745 744 743 741 740 739 738 736 735 734 732 731 729 728 727 726 724 724 722 721 719 718 716 715 714 712 711 711 711 711 711 710 710 710 709 709 708 706 704 704 703 703 702 701 699 699 697 696 696 696 696 696 695
767 766 764 763 761 759 758 757 755 754 753 751 750 748 747 745 744 742 741 740 738 737 736 734 733 731 730 729 727 726 724 723 722 721 720 718 717 715 714 713 711 710 709 709 709 709 708 708 708 707 707 706 705 704 703 701 700 699 699 698 697 696 695 694 693 692 692 692 692
766 764 763 761 760 758 757 755 754 753 751 750 748 747 745 744 742 741 739 738 737 735 734 733 731 729 728 726 725 724 722 720 719 718 717 716 714 713 711 710 709 707 706 706 706 706 705 705 705 704 704 704 703 701 700 699 698 697 695 694 694 693 692 691 690 689 689 689 689
764 763 762 760 758 757 755 754 753 751 749 748 747 745 744 742 741 739 738 737 735 733 732 730 729 727 725 724 723 721 720 719 717 716 715 714 712 710 709 707 706 705 704 704 704 703 703 702 702 702 701 700 699 698 697 696 694 694 692 691 690 689 689 689 688 687 686 686 685
763 762 760 759 757 755 754 753 751 749 748 746 745 744 742 740 739 737 736 735 734 732 730 728 727 725 723 722 720 719 717 716 715 713 712 711 710 708 707 705 704 702 702 701 701 701 700 700 699 699 698 697 696 695 694 693 692 690 689 688 687 687 686 686 685 684 684 683 682
762 760 759 757 756 754 752 751 749 748 746 745 743 742 740 739 737 735 734 733 731 730 728 727 725 723 722 720 719 717 715 714 712 711 709 708 707 706 704 702 701 700 699 699 699 698 698 697 697 696 695 694 693 692 691 689 689 687 686 685 684 684 684 683 682 682 681 680 679
761 759 758 756 754 753 751 749 748 746 745 743 741 739 738 737 735 734 732 731 729 728 726 724 723 721 719 718 716 715 713 711 709 708 707 706 704 703 701 699 698 697 697 696 696 696 695 694 694 693 692 691 690 689 688 686 685 684 683 682 681 680 680 680 679 679 678 677 676
760 758 756 754 753 751 750 748 746 744 743 741 739 738 736 734 733 732 730 729 727 725 723 722 720 718 717 715 714 712 711 709 707 705 704 703 702 700 699 697 695 694 694 694 694 693 693 692 691 690 689 689 687 686 684 684 682 681 679 679 678 677 676 676 676 675 674 674 673
759 757 755 753 752 750 748 747 745 743 741 739 738 736 734 733 731 729 728 727 725 723 721 719 718 716 714 713 711 709 708 707 705 703 702 700 699 698 696 694 692 691 691 691 691 690 690 689 688 688 687 686 684 683 682 680 679 678 676 675 674 674 673 673 673 672 671 671 670
757 755 754 752 750 749 747 745 744 742 740 738 736 734 733 731 729 728 726 725 724 721 719 717 715 714 712 710 709 707 705 704 703 701 699 698 697 695 694 692 690 689 688 688 688 688 687 686 685 685 684 683 682 680 679 678 676 675 674 673 672 671 670 670 670 669 669 668 668
755 754 753 751 749 747 745 744 742 740 739 736 734 733 731 730 728 726 724 724 722 720 718 715 713 711 710 709 707 705 703 701 700 699 698 696 694 693 692 690 688 686 685 685 685 685 684 683 682 682 681 680 679 678 677 675 674 673 671 670 669 669 668 667 667 666 665 664 664
753 752 751 749 748 746 744 742 740 739 737 735 733 731 729 728 726 724 723 721 720 719 716 714 712 710 708 707 705 703 700 698 697 696 695 694 692 691 689 688 686 684 683 683 682 682 681 680 679 679 678 678 676 675 674 673 672 670 669 668 667 666 665 664 664 663 662 661 661
751 750 749 747 746 744 743 740 738 737 735 734 732 730 728 726 724 723 721 719 718 716 714 712 710 708 706 705 703 701 698 696 694 693 692 691 689 688 687 685 683 681 680 679 679 679 678 677 676 676 675 675 674 673 672 671 669 668 666 665 664 664 663 661 661 660 659 659 658
Wind_Speed
16 17 17 17 18 18 19 20 21 21 22 23 23 24 24 24 25 25 26 26 27 27 27 27 27 27 26 26 26 26 26 26 27 27 27 28 28 28 29 29 29 30 31 31 32 32 33 33 33 33 33 33 34 34 34 34 34 33 33 33 33 33 33 33 34 35 35 35 35
18 18 19 19 20 20 21 22 22 23 23 24 24 24 23 23 24 25 25 26 26 26 26 26 26 26 26 26 25 26 26 26 26 27 27 28 28 28 29 29 29 30 30 31 31 32 32 32 32 32 32 32 33 33 34 35 34 33 33 34 33 32 32 32 33 35 35 36 36
20 20 21 21 22 22 23 23 24 24 24 24 24 24 24 24 24 25 25 26 26 26 26 26 26 26 26 26 25 25 25 25 26 26 27 27 28 28 28 29 29 30 30 30 31 31 31 31 31 31 31 32 33 33 34 34 33 33 33 34 33 31 31 31 32 33 33 34 34
21 22 22 23 23 24 24 25 25 25 25 25 25 24 24 25 25 25 25 25 25 25 26 26 26 26 25 25 25 25 24 25 25 25 26 27 27 28 28 28 29 29 30 30 31 31 31 31 30 30 31 32 33 33 34 33 32 32 32 32 32 31 31 31 32 32 32 32 33
23 23 24 24 25 25 26 26 26 26 26 25 25 25 26 25 25 25 25 25 25 25 25 25 25 25 25 24 24 24 24 24 24 25 25 26 26 27 27 28 28 29 29 30 30 31 30 30 30 30 31 32 33 34 34 34 32 31 31 31 31 31 31 32 32 32 32 32 33
26 26 26 26 27 27 27 27 27 27 27 26 26 26 26 26 25 25 25 25 25 25 25 24 24 24 24 24 24 24 24 23 24 24 25 25 26 26 27 27 28 28 29 29 29 30 30 30 30 30 31 32 33 34 35 34 32 31 31 31 31 31 32 32 33 33 32 33 33
29 29 29 29 29 29 29 29 29 28 28 28 27 27 27 26 25 25 25 25 25 25 24 24 24 24 24 24 23 23 23 23 23 23 24 24 25 25 26 27 27 28 28 28 28 29 29 29 29 30 31 31 32 33 34 33 32 32 32 32 32 32 32 32 33 32 32 33 34
32 32 33 33 32 32 31 30 30 29 29 29 29 28 28 27 26 25 25 25 24 24 24 24 24 24 24 23 23 23 23 23 23 23 23 23 24 24 24 25 26 26 27 27 27 28 28 28 29 30 30 31 31 32 32 33 32 32 33 34 33 32 32 33 33 33 33 34 35
33 34 35 36 36 35 34 32 31 30 30 30 30 30 29 27 26 26 25 25 24 24 24 24 24 24 23 23 23 23 23 22 22 22 22 22 23 23 23 24 24 25 25 25 26 26 27 27 28 30 31 31 32 32 32 32 32 33 34 34 34 33 33 33 33 33 34 35 35
30 32 34 36 37 38 36 34 33 32 31 32 31 31 30 29 28 27 26 25 25 24 24 24 24 23 23 23 23 23 23 22 22 22 22 22 22 22 23 23 23 24 24 24 24 25 25 26 28 29 30 31 32 33 33 32 32 33 34 34 33 33 34 34 34 34 34 34 35
27 28 30 32 35 37 37 36 35 34 33 33 33 32 31 30 29 28 27 26 25 25 25 24 24 24 23 23 23 23 23 23 22 22 22 22 22 22 23 23 23 23 23 23 23 23 24 25 27 29 30 31 32 32 33 33 33 34 34 35 34 34 34 35 35 34 34 34 35
27 27 27 28 30 32 35 36 36 36 35 35 35 34 33 32 31 29 28 27 26 26 26 25 25 25 24 24 24 24 23 23 23 22 22 23 23 23 23 23 23 23 24 23 23 23 24 25 27 28 30 31 31 32 32 33 33 34 35 36 36 35 36 36 36 35 34 34 35
28 28 27 27 27 28 30 33 34 35 36 36 36 36 35 34 32 30 29 28 28 27 27 26 26 26 26 25 25 25 24 24 24 23 23 24 24 24 24 24 24 24 24 24 24 24 25 26 27 28 30 30 31 31 32 33 34 34 35 35 36 36 37 38 38 37 35 35 35
30 30 29 29 28 27 28 29 31 32 34 35 36 36 36 36 35 33 31 30 29 28 28 27 27 27 27 27 26 26 25 25 25 25 25 25 25 26 26 26 26 26 26 26 25 26 26 27 28 28 29 30 31 31 32 32 33 34 35 35 36 36 37 38 38 37 36 36 36
31 31 31 30 30 29 28 28 28 29 30 32 33 34 35 36 37 36 34 33 31 30 29 29 28 28 28 28 27 27 27 27 27 27 27 27 27 27 27 28 28 27 27 27 27 27 28 28 28 29 29 30 31 31 32 32 33 34 35 36 37 37 38 38 38 37 37 37 37
31 31 31 31 31 31 30 29 29 29 29 29 30 31 32 35 36 37 37 36 34 32 31 30 30 30 29 29 28 28 29 29 29 29 29 30 29 29 29 29 29 29 29 29 29 29 29 29 29 30 30 31 31 31 32 33 33 34 35 36 37 38 38 39 38 38 37 37 37
31 31 31 31 31 31 31 31 31 30 30 29 29 29 29 31 33 35 37 38 37 36 34 33 32 32 31 31 30 30 31 31 32 32 32 32 32 32 32 32 31 31 31 31 31 31 31 31 30 30 31 31 31 32 32 32 33 34 35 36 37 38 38 39 38 38 37 37 37
30 30 30 31 31 31 31 32 32 31 31 31 30 29 29 29 30 31 34 36 37 38 38 37 36 35 35 34 34 33 34 34 35 35 35 35 35 35 35 35 35 34 34 34 34 34 33 32 32 31 31 31 32 32 32 32 33 34 35 36 37 38 39 39 39 38 37 37 37
30 30 30 30 30 30 31 31 31 32 32 32 31 31 30 30 29 29 31 32 34 36 38 39 39 39 38 38 37 37 36 36 36 37 37 37 37 37 37 37 37 37 37 37 37 37 36 34 33 32 32 32 32 32 32 32 33 34 34 35 36 37 38 39 39 39 38 38 38
28 29 29 29 29 29 30 30 31 31 32 32 32 32 32 31 31 30 30 30 30 32 34 37 39 40 40 40 40 39 39 38 38 38 38 38 37 37 37 37 37 38 38 38 39 39 38 37 35 34 33 32 32 32 32 33 33 34 34 35 36 37 38 39 39 39 39 40 40
27 28 28 28 28 29 29 30 30 31 31 32 32 32 32 32 32 31 31 30 30 30 31 33 35 37 39 39 40 40 40 39 39 39 39 39 39 38 38 37 37 36 37 37 38 39 39 38 37 35 33 33 33 33 33 33 33 34 34 35 36 37 38 38 38 39 39 40 40
27 27 28 28 28 29 29 30 30 30 31 31 32 32 32 32 32 32 31 31 31 31 31 32 33 34 35 36 37 38 38 38 38 38 39 39 39 39 38 36 35 35 35 36 37 37 38 38 37 36 34 33 33 33 33 33 33 34 35 36 36 37 37 37 38 38 39 39 40
27 27 28 28 29 29 30 30 30 31 31 32 32 32 32 32 32 32 31 31 31 32 32 32 33 33 34 34 35 35 36 36 37 37 38 39 39 39 38 36 35 34 35 35 35 35 36 36 36 36 34 33 33 33 33 33 34 34 35 36 36 37 37 37 37 38 38 39 39
27 28 28 29 29 30 30 31 31 32 32 32 32 32 32 32 32 32 32 32 32 32 33 33 33 33 34 34 34 35 35 36 37 37 38 38 39 39 38 37 36 36 36 37 36 35 34 33 34 34 34 33 32 32 32 32 33 34 35 35 36 36 36 37 37 37 38 38 38
28 29 29 29 30 30 31 31 32 32 33 33 33 33 33 33 33 33 33 33 33 33 33 33 34 34 34 34 34 34 35 35 36 37 37 38 38 38 38 38 37 37 38 39 38 36 34 32 31 32 32 32 31 31 31 32 33 34 35 35 35 35 35 35 35 36 37 38 38
30 30 30 30 30 31 31 32 32 33 33 34 34 34 34 34 34 34 34 34 34 34 34 34 34 34 33 33 33 33 33 34 34 35 36 36 37 38 38 37 37 38 39 39 38 36 34 31 30 30 30 30 29 29 30 31 33 34 35 35 35 34 34 34 35 35 36 37 38
31 31 31 31 31 32 32 32 33 33 34 34 34 34 34 34 34 34 34 34 34 34 34 34 33 32 32 31 31 32 32 33 33 33 34 35 36 37 37 37 37 38 39 38 38 36 33 31 30 29 28 28 29 29 29 31 32 34 34 34 34 33 33 34 35 35 36 36 37
32 32 32 32 32 33 33 34 34 33 34 34 34 34 34 35 35 35 34 34 34 34 34 33 32 31 30 30 30 31 32 32 32 33 33 34 34 35 36 37 37 37 37 37 35 33 32 30 29 28 27 27 28 29 30 31 32 32 32 32 32 33 33 34 34 34 34 35 35
32 32 32 32 33 33 34 34 33 33 34 34 34 34 34 34 34 34 34 34 34 34 33 32 32 31 30 30 31 32 33 33 33 33 33 33 34 35 35 36 35 36 36 35 33 31 30 29 29 28 28 27 27 27 28 29 29 29 29 29 29 30 31 32 33 33 33 33 33
32 32 32 32 32 33 33 33 33 33 34 34 34 34 34 34 34 34 34 34 34 33 32 32 32 31 31 32 32 33 33 33 33 32 32 32 33 34 34 34 35 35 35 34 32 31 30 29 29 29 28 28 28 28 28 28 29 29 28 28 28 29 30 30 31 32 32 32 32
31 31 31 31 32 32 33 33 34 34 34 34 34 33 33 33 33 33 33 33 33 33 33 32 32 32 33 33 33 32 33 33 33 33 32 32 33 33 34 34 35 35 35 33 32 30 30 29 29 29 29 28 28 28 29 29 30 29 29 29 29 29 29 29 30 30 31 32 32
31 30 30 31 31 32 33 33 33 34 34 33 33 33 33 33 33 33 33 33 33 33 33 32 32 32 33 33 32 32 32 33 33 32 32 32 32 33 34 35 35 35 35 33 31 30 29 28 28 28 28 28 28 29 30 30 30 30 30 30 31 31 30 30 29 30 31 32 32
30 30 30 30 31 32 33 33 33 33 33 33 33 32 32 33 33 34 33 33 32 31 31 31 31 31 32 32 32 32 33 33 33 33 33 32 33 33 34 35 34 34 33 32 30 29 28 28 28 28 28 29 29 30 31 30 30 29 29 30 30 30 30 30 30 31 31 32 32
29 29 29 30 31 32 33 33 33 33 33 33 33 32 32 32 33 33 33 32 31 30 30 30 31 31 31 31 31 32 33 33 33 33 33 34 34 34 34 34 34 34 33 31 30 29 28 28 28 28 29 29 30 30 30 30 30 30 30 30 31 31 31 31 32 32 33 33 32
28 29 29 30 31 32 32 33 33 33 32 32 32 32 32 32 32 32 32 32 31 31 31 31 31 31 31 31 31 32 32 33 33 34 34 34 34 34 34 35 35 35 34 32 31 30 29 29 29 29 29 29 29 29 29 29 29 29 30 30 31 32 33 33 33 33 33 33 32
28 28 29 30 31 31 32 32 32 32 32 31 32 32 33 33 32 32 31 31 31 31 31 31 31 31 31 32 31 31 32 32 33 34 34 34 33 33 34 35 36 36 35 33 31 30 29 29 29 29 29 28 28 27 27 27 27 27 28 29 30 31 31 32 32 32 32 32 32
28 28 29 30 30 31 31 31 31 31 31 31 32 32 32 33 32 32 31 30 30 30 31 31 31 32 32 32 32 32 33 33 33 33 34 34 33 33 33 34 35 36 35 33 31 30 29 29 29 29 28 28 27 27 26 26 26 26 26 27 28 28 29 28 29 30 30 31 32
29 29 29 29 30 30 30 30 30 30 31 32 32 32 32 32 32 32 31 29 29 29 31 31 32 32 32 32 33 33 34 33 33 33 33 33 33 33 33 34 35 35 34 33 31 30 30 29 29 28 28 27 27 27 27 27 26 26 25 26 26 26 26 26 26 27 28 29 30
29 29 28 28 29 29 30 30 30 30 31 32 32 32 32 31 31 31 30 29 29 29 30 31 32 33 33 33 33 33 34 34 33 33 32 32 33 33 32 33 33 34 34 33 31 31 30 29 29 28 27 27 27 28 27 26 25 26 26 27 26 25 25 26 25 25 26 28 29
29 29 28 28 28 29 29 30 30 30 31 31 31 31 31 31 30 30 30 29 29 30 30 31 32 33 33 33 33 33 34 34 34 33 33 32 33 33 32 32 33 34 34 34 33 32 31 30 29 28 27 26 26 26 26 25 25 26 26 26 25 24 24 24 24 24 25 27 28
29 29 29 28 28 28 29 30 31 31 31 31 31 31 31 30 30 30 30 30 31 31 31 31 32 33 33 33 32 32 33 34 35 35 34 33 33 33 32 32 33 34 35 35 34 32 31 30 28 27 26 25 25 25 25 24 23 24 24 24 23 23 22 23 23 23 24 25 27
Wind_Direction
304 303 302 301 299 298 297 297 297 295 294 292 292 291 290 288 284 284 284 283 281 281 283 285 286 287 288 287 285 283 283 282 281 279 277 275 274 273 273 271 269 267 265 263 262 260 258 255 252 250 248 248 248 249 249 248 247 245 243 243 242 242 242 242 242 242 241 240 240
305 303 302 301 300 300 299 299 298 298 297 296 295 294 292 289 286 285 285 285 285 285 286 287 288 288 288 288 286 285 283 282 281 280 279 277 276 275 274 272 270 269 267 265 263 261 258 255 252 250 248 248 248 248 249 249 248 246 245 244 243 243 242 242 242 243 243 242 241
304 302 301 300 299 299 299 299 299 298 298 297 295 294 291 289 287 286 286 287 288 288 287 287 288 289 289 289 288 286 284 283 282 281 280 279 278 277 275 273 272 270 269 267 265 262 259 256 253 250 249 249 249 249 249 250 248 246 245 245 244 243 243 243 243 244 243 242 241
303 301 300 299 298 298 298 298 298 298 297 296 294 292 290 289 288 287 288 289 289 288 287 288 289 290 290 289 289 287 286 284 283 282 281 281 280 278 277 275 273 272 270 268 266 264 261 258 254 251 250 250 250 250 250 250 248 247 246 246 245 244 243 243 244 244 243 242 242
304 302 300 299 298 297 297 297 297 296 296 294 292 291 290 290 289 288 288 288 287 287 288 289 290 290 289 289 288 287 286 285 284 283 282 282 282 281 279 277 275 274 272 270 268 266 263 259 255 252 251 251 251 251 252 251 249 247 247 247 246 244 244 244 244 244 243 243 243
304 302 301 299 298 297 297 296 296 295 294 292 290 290 290 290 289 287 286 286 286 287 288 288 287 287 287 287 287 286 286 285 284 283 283 283 284 283 282 280 278 277 275 272 270 267 264 260 256 253 252 252 252 252 253 252 249 248 247 247 246 245 245 244 244 244 244 243 243
303 302 301 300 298 297 296 296 295 294 293 291 289 289 289 289 287 286 285 285 285 284 284 284 284 284 285 285 285 284 284 284 284 283 284 284 285 284 284 283 281 279 277 275 272 269 265 261 257 254 253 252 252 252 253 251 249 247 247 246 246 246 245 245 245 244 244 243 243
302 301 301 300 299 297 296 295 294 292 291 289 288 288 288 287 285 283 282 282 281 280 280 280 280 280 281 282 282 282 282 283 283 284 284 285 286 286 286 285 284 282 280 277 274 270 266 262 258 256 254 253 252 252 252 251 249 248 247 247 247 247 246 246 246 245 244 244 244
299 299 299 299 298 297 296 294 292 290 289 288 288 287 286 284 282 280 279 278 277 277 276 275 275 276 277 277 278 279 280 281 283 284 285 286 286 286 287 287 286 285 283 280 276 272 268 264 260 258 256 254 253 253 253 252 250 248 248 248 248 248 247 247 246 246 245 244 244
302 300 298 297 296 296 294 292 291 289 288 288 287 287 285 282 280 278 277 275 274 272 271 271 271 272 272 273 274 276 278 280 282 283 284 285 285 286 286 287 286 287 286 284 280 276 271 265 262 260 259 257 256 256 255 253 251 249 249 249 249 248 248 247 246 246 245 244 244
312 307 302 299 296 294 292 290 289 288 288 287 287 285 283 281 279 277 275 272 270 269 268 268 268 268 268 269 270 272 275 278 280 282 283 283 283 284 284 285 286 286 286 286 283 278 273 267 264 262 261 260 259 258 256 254 252 250 250 250 250 249 249 248 247 246 244 244 244
322 318 313 307 302 298 294 291 289 288 288 287 287 285 283 280 278 275 272 269 268 267 267 266 265 265 266 266 267 269 272 275 277 279 280 280 280 281 282 282 283 284 284 285 283 279 273 269 267 265 265 263 261 259 257 255 253 251 251 251 251 250 249 249 248 246 245 245 245
324 323 322 318 313 307 301 296 293 291 290 289 289 288 286 283 280 275 270 267 266 266 266 265 264 264 265 265 266 267 269 272 274 276 277 278 278 279 279 280 280 281 282 282 281 278 274 271 269 268 267 266 263 261 259 257 254 253 252 252 251 250 250 250 250 248 246 245 245
322 323 324 324 322 318 313 306 301 297 294 292 291 290 289 287 284 279 273 268 266 266 265 265 264 264 265 266 267 268 269 271 273 274 275 276 276 277 278 278 279 279 280 280 279 277 274 272 270 269 268 267 266 264 263 260 257 255 253 253 252 251 251 252 251 250 248 246 245
322 322 323 324 325 324 322 317 312 306 301 297 294 292 290 289 287 283 278 272 267 266 266 265 265 265 266 267 268 269 270 272 273 273 274 275 275 275 276 277 277 278 278 278 278 276 275 273 272 270 269 268 267 267 265 262 259 257 256 255 254 254 254 254 253 251 248 247 246
323 323 323 324 325 325 325 324 321 317 312 307 301 297 294 292 290 286 280 275 270 268 266 266 267 267 267 268 269 270 272 273 273 274 274 274 275 275 275 276 277 277 278 278 277 276 275 274 272 271 269 268 268 267 265 263 261 259 258 258 257 257 256 256 254 252 250 248 247
325 325 325 325 325 325 325 325 324 322 320 316 311 306 301 297 294 290 285 280 276 272 270 269 270 270 270 270 270 271 272 274 274 275 275 276 276 276 276 277 277 277 278 278 277 277 276 275 273 272 270 268 267 266 266 264 263 261 260 260 260 259 258 258 256 253 251 249 248
328 328 327 327 326 325 325 324 324 323 322 320 317 314 309 305 300 296 292 287 282 279 277 276 276 276 275 275 275 274 275 276 276 277 278 278 279 279 279 279 279 279 279 278 278 277 277 276 274 273 270 268 267 267 266 265 264 263 262 262 262 261 260 259 257 255 252 250 249
332 332 331 329 328 327 325 324 323 322 321 319 318 316 314 311 308 305 300 295 290 286 284 283 282 281 281 281 280 280 280 280 280 281 281 282 283 283 283 283 283 283 282 281 279 278 277 276 275 273 271 269 268 267 266 265 265 264 264 263 263 262 262 261 259 257 254 252 251
336 334 333 332 330 329 327 325 323 322 320 318 317 316 315 314 312 310 308 304 300 295 291 288 286 285 285 285 285 285 285 285 286 286 286 286 286 286 287 288 288 288 287 285 283 281 279 277 275 274 272 270 269 268 267 267 266 265 265 264 264 263 262 261 260 259 257 255 253
337 336 335 334 332 331 329 327 324 322 320 318 317 316 315 314 313 312 311 310 308 304 299 294 292 290 289 289 289 289 289 290 290 289 289 288 288 288 288 290 291 292 291 290 287 284 281 279 276 275 274 272 271 270 269 268 268 267 266 265 265 264 263 262 261 260 258 257 255
337 337 336 335 333 332 330 328 326 324 322 320 319 318 317 316 315 314 313 312 311 308 304 301 298 296 295 294 293 293 293 293 292 291 291 290 289 288 288 288 289 291 292 291 290 287 284 281 278 276 275 274 273 273 272 271 270 269 267 266 265 265 264 263 262 261 260 258 257
336 336 335 334 333 331 330 328 327 325 324 323 322 321 320 319 318 316 315 314 312 310 307 305 303 301 300 298 297 296 295 294 293 292 292 291 289 288 287 285 285 286 287 289 289 287 284 280 277 275 274 274 274 274 273 272 271 269 267 266 265 264 264 263 263 262 261 260 259
334 334 333 333 332 331 329 328 327 326 326 325 325 324 323 321 320 319 317 316 313 312 310 308 307 305 304 302 300 297 295 293 292 292 291 290 289 287 285 283 282 280 281 281 282 282 280 276 273 272 271 271 272 273 273 273 271 269 267 265 264 264 264 264 263 263 262 261 259
333 333 332 332 331 330 329 328 327 327 326 325 325 324 323 322 321 320 318 316 315 313 312 310 309 308 306 303 301 299 296 293 292 291 291 291 289 288 285 283 281 279 278 277 277 276 274 270 267 266 266 267 269 271 272 272 270 268 266 265 263 263 263 263 263 262 262 261 260
332 332 332 331 330 329 328 327 327 326 326 325 325 324 323 321 320 319 317 316 315 314 312 311 309 308 306 303 301 299 296 294 292 291 291 290 290 288 286 283 281 280 279 278 277 275 271 266 262 260 261 263 265 267 268 269 269 268 266 264 263 262 261 261 261 261 261 261 260
331 331 331 331 329 328 327 327 326 326 325 325 324 323 322 320 319 318 316 314 313 313 312 310 309 307 304 302 299 297 295 294 292 291 289 289 288 287 286 284 282 281 280 280 279 276 272 267 263 259 257 259 261 262 263 264 266 266 265 263 262 260 259 258 259 259 259 259 259
329 329 329 329 327 326 326 326 325 325 324 324 323 321 320 319 318 316 314 313 312 311 310 309 307 306 303 300 297 296 295 293 292 290 289 288 286 286 285 284 283 282 282 281 279 277 274 270 266 262 259 259 260 261 262 262 263 263 262 262 261 260 258 257 257 257 257 256 256
327 328 327 326 325 325 325 325 324 323 323 322 321 320 319 317 316 314 313 312 311 310 308 307 306 304 301 298 296 295 294 293 292 290 289 288 287 286 285 285 284 283 283 282 280 278 275 272 268 265 264 263 262 261 261 261 261 261 260 260 259 258 257 256 255 255 255 254 254
326 326 325 324 323 323 323 323 322 322 321 321 320 319 317 316 315 314 313 312 311 309 308 306 304 302 299 297 296 295 293 292 292 290 289 288 287 286 286 285 285 285 285 283 281 279 276 273 270 268 267 266 266 265 263 262 261 261 260 260 260 259 258 256 255 255 254 254 254
324 324 323 323 322 321 321 321 321 321 320 319 318 317 316 315 314 313 313 312 311 310 309 307 304 301 299 298 297 295 294 293 292 291 289 288 287 287 286 286 286 286 286 285 283 280 277 274 271 270 270 270 270 269 267 265 264 262 262 261 261 260 260 259 258 257 256 256 254
323 323 322 321 320 320 320 320 320 320 319 318 317 316 315 314 314 313 313 312 311 310 309 307 305 303 301 300 298 297 295 294 293 291 290 288 287 287 287 287 287 287 287 286 284 281 278 275 273 272 272 273 273 272 271 268 266 264 264 263 263 263 263 263 263 263 261 259 255
322 322 321 320 319 319 319 319 319 318 318 317 316 315 315 314 314 314 314 313 312 310 308 307 304 302 301 300 299 297 296 294 293 292 291 290 288 288 287 287 287 286 286 285 284 282 279 277 275 274 275 276 277 276 274 271 268 267 266 266 266 267 267 267 267 266 265 262 257
321 321 320 319 318 318 318 318 318 318 317 316 315 315 314 314 313 313 313 312 311 309 307 305 303 301 300 299 298 297 296 295 294 293 292 291 290 289 288 287 286 286 286 285 283 281 279 277 276 276 277 279 279 278 275 273 271 270 269 269 270 270 270 270 269 268 266 264 260
320 320 319 318 317 317 317 317 317 316 316 314 314 313 313 313 312 311 311 311 310 308 306 304 303 301 300 299 298 297 296 295 295 294 293 293 292 290 288 287 287 287 287 286 284 282 280 279 279 279 279 280 279 278 276 274 273 272 272 272 272 272 272 272 270 269 267 266 263
319 319 318 317 316 316 316 316 315 315 314 312 312 312 312 312 311 310 310 310 309 307 305 304 303 302 301 300 299 298 297 296 295 295 294 293 292 290 288 287 287 288 288 287 285 283 282 281 281 281 281 281 280 278 277 275 274 274 274 273 273 272 273 272 270 269 268 266 264
318 318 317 316 315 315 314 314 313 312 311 310 310 309 309 309 309 308 309 308 307 306 304 304 303 302 301 300 300 299 298 297 295 295 294 293 292 290 288 287 287 288 288 287 286 284 283 282 282 282 283 282 280 279 278 277 277 276 276 275 275 274 273 272 271 270 269 267 265
317 317 316 315 314 313 313 312 311 310 309 308 308 308 307 307 307 307 307 307 306 304 303 303 302 302 301 301 301 300 299 297 296 295 294 293 291 290 288 287 287 287 287 287 286 285 284 284 284 284 283 282 281 281 280 280 280 279 278 278 277 276 274 273 272 271 269 268 267
316 316 315 313 312 311 310 310 308 307 307 306 306 306 306 305 305 305 305 305 304 303 302 302 301 301 301 301 301 300 299 298 297 295 294 292 291 290 289 287 286 286 287 286 286 286 285 285 284 284 284 282 282 282 282 282 281 281 280 279 278 276 274 273 272 270 269 267 269
315 314 314 312 311 310 309 308 307 306 306 305 304 304 304 304 304 304 304 304 303 302 302 301 301 301 301 301 301 300 299 298 297 296 295 293 292 291 290 288 286 286 287 287 287 287 286 286 285 285 284 283 283 283 283 282 281 280 279 277 276 275 274 273 272 270 268 267 268
313 313 313 311 310 309 308 307 306 306 306 304 303 303 303 303 303 303 303 303 303 303 302 302 301 301 301 301 301 300 299 298 297 296 295 294 293 292 290 288 287 287 288 288 289 288 287 286 285 285 284 283 283 283 282 281 278 277 277 276 276 277 278 278 276 273 270 268 266